This is the latest recevied weather packets stored in our database for station/object SP7QPD-1. If no packets are shown the sender has not sent any weather packets the latest 10 day(s).
| Time | Temp. | Humidity | Pressure | Rain* | Wind** | Luminosity | Snow |
|---|---|---|---|---|---|---|---|
| 1778127217 | 13.89° C | 51% | 1004.4 hPa | 0 mm | - | - | - |
| 1778126617 | 13.89° C | 51% | 1004.4 hPa | 0 mm | - | - | - |
| 1778126017 | 13.89° C | 46% | 1004.3 hPa | 0 mm | - | - | - |
| 1778125417 | 13.89° C | 41% | 1004.2 hPa | 0 mm | - | - | - |
| 1778124817 | 13.89° C | 46% | 1004.1 hPa | 0 mm | - | - | - |
| 1778124217 | 13.89° C | 45% | 1003.9 hPa | 0 mm | - | - | - |
| 1778123616 | 13.89° C | 43% | 1004 hPa | 0 mm | - | - | - |
| 1778123019 | 13.89° C | 40% | 1003.9 hPa | 0 mm | - | - | - |
| 1778122416 | 13.33° C | 46% | 1003.9 hPa | 0 mm | - | - | - |
| 1778121816 | 13.33° C | 51% | 1003.7 hPa | 0 mm | - | - | - |
| 1778121216 | 13.33° C | 55% | 1004 hPa | 0 mm | - | - | - |
| 1778120616 | 13.33° C | 58% | 1003.8 hPa | 0 mm | - | - | - |
| 1778120016 | 13.89° C | 60% | 1003.9 hPa | 0 mm | - | - | - |
| 1778119416 | 13.89° C | 62% | 1003.8 hPa | 0 mm | - | - | - |
| 1778118816 | 13.89° C | 63% | 1003.7 hPa | 0 mm | - | - | - |
| 1778118216 | 13.89° C | 64% | 1003.7 hPa | 0 mm | - | - | - |
| 1778117616 | 14.44° C | 64% | 1003.7 hPa | 0 mm | - | - | - |
| 1778117016 | 14.44° C | 65% | 1003.7 hPa | 0 mm | - | - | - |
| 1778116416 | 15° C | 65% | 1003.7 hPa | 0 mm | - | - | - |
| 1778115815 | 15° C | 66% | 1003.7 hPa | 0 mm | - | - | - |
| 1778115215 | 15° C | 67% | 1003.7 hPa | 0 mm | - | - | - |
| 1778114615 | 15° C | 66% | 1003.7 hPa | 0 mm | - | - | - |
| 1778114015 | 15° C | 68% | 1003.7 hPa | 0 mm | - | - | - |
| 1778113415 | 15° C | 68% | 1003.7 hPa | 0 mm | - | - | - |
| 1778112815 | 15.56° C | 69% | 1003.7 hPa | 0 mm | - | - | - |
* Rain latest hour (hover to see other rain measurements)
** Current wind speed in m/s (hover to see current wind gust speed)